FW0034 Weather Reports


time (UTC)temp
C
wind
direction
speed
KPH
gust
KPH
rain 1hr
cm
rain 24hr
cm
rain mn
cm
humidity
%
barometer
mb
20260502233606 11 314 4.8 6.4 0.20 0.69 0.10 92 1002.3
20260502232918 11 309 3.2 6.4 0.23 0.69 0.10 92 1002.5
20260502231805 11 304 3.2 6.4 0.23 0.66 0.05 92 1002.5
20260502230908 11 309 3.2 6.4 0.23 0.64 0.03 92 1002.7
20260502230014 11 315 3.2 3.2 0.23 0.61 0.00 91 1002.7
20260502225407 11 329 3.2 3.2 0.23 0.61 0.61 91 1002.4
20260502224507 11 331 1.6 3.2 0.18 0.53 0.53 91 1002.7
20260502223817 11 314 3.2 6.4 0.18 0.51 0.51 91 1002.8
20260502222709 11 317 4.8 6.4 0.13 0.43 0.43 91 1002.8
20260502221807 11 312 3.2 6.4 0.15 0.43 0.43 91 1002.7
20260502220906 11 318 6.4 6.4 0.13 0.38 0.38 91 1002.6
20260502220006 11 325 6.4 11.3 0.10 0.36 0.36 90 1002.5
20260502215618 11 324 4.8 9.7 0.10 0.36 0.36 90 1002.7
20260502214507 11 328 3.2 3.2 0.10 0.36 0.36 90 1002.7
20260502213605 11 328 4.8 6.4 0.10 0.33 0.33 90 1002.8
20260502212706 11 327 3.2 6.4 0.13 0.30 0.30 89 1003.0
20260502211805 11 312 3.2 6.4 0.13 0.28 0.28 89 1003.0
20260502210907 11 312 3.2 6.4 0.15 0.28 0.28 89 1003.1
20260502210007 11 313 1.6 3.2 0.18 0.28 0.28 88 1003.2
20260502205411 11 289 1.6 3.2 0.18 0.28 0.28 88 1003.0
20260502204505 12 254 1.6 3.2 0.18 0.28 0.28 88 1003.3
20260502203604 12 247 0.0 3.2 0.18 0.23 0.23 87 1003.3
20260502202705 12 0 0.0 0.0 0.15 0.18 0.18 87 1003.3
20260502201806 12 247 0.0 3.2 0.13 0.15 0.15 86 1003.5
20260502200907 12 247 0.0 3.2 0.10 0.13 0.13 85 1003.7
20260502200011 12 247 1.6 3.2 0.05 0.10 0.10 85 1003.6
20260502195407 12 253 1.6 3.2 0.05 0.10 0.10 84 1003.5
20260502194507 12 270 0.0 3.2 0.05 0.10 0.10 82 1003.6
20260502193605 12 257 1.6 3.2 0.03 0.05 0.05 81 1003.6
20260502192921 12 258 1.6 3.2 0.03 0.05 0.05 80 1003.5
20260502191807 13 268 1.6 3.2 0.00 0.03 0.03 79 1003.5
20260502190907 13 293 1.6 3.2 0.00 0.03 0.03 78 1003.4
20260502190008 13 288 3.2 3.2 0.00 0.03 0.03 77 1003.6
20260502185405 13 298 3.2 3.2 0.00 0.03 0.03 77 1003.4
20260502184505 13 281 3.2 6.4 0.00 0.03 0.03 76 1003.3
20260502183814 13 271 4.8 6.4 0.00 0.03 0.03 75 1003.5
20260502182707 13 303 4.8 6.4 0.00 0.03 0.03 74 1003.5
20260502181807 13 312 4.8 6.4 0.00 0.03 0.03 74 1003.4
20260502180905 13 329 3.2 3.2 0.00 0.03 0.03 73 1003.6
20260502180219 13 314 4.8 6.4 0.00 0.03 0.03 73 1003.5
20260502163610 15 302 8.0 11.3 0.00 0.05 0.03 69 1003.7
20260502162918 15 308 9.7 14.5 0.00 0.05 0.03 69 1003.7
20260502161805 15 320 6.4 12.9 0.00 0.05 0.03 68 1003.8
20260502160907 16 344 4.8 6.4 0.00 0.05 0.03 68 1003.9
20260502151807 17 22 3.2 6.4 0.00 0.10 0.03 59 1004.5
20260502150907 17 39 4.8 9.7 0.00 0.10 0.03 59 1004.5
20260502150215 17 355 8.0 11.3 0.00 0.10 0.03 59 1004.7
20260502123608 16 350 4.8 9.7 0.00 0.10 0.03 60 1006.0
20260502122920 16 345 3.2 6.4 0.00 0.10 0.03 59 1006.2
20260502121809 16 358 4.8 6.4 0.00 0.10 0.03 61 1006.3
20260502120906 16 289 3.2 6.4 0.00 0.10 0.03 62 1006.7
20260502115407 16 310 4.8 6.4 0.00 0.10 0.03 61 1006.6
20260502114508 16 276 4.8 6.4 0.00 0.10 0.03 61 1006.7
20260502113608 16 68 4.8 6.4 0.00 0.10 0.03 59 1006.9
20260502112705 16 148 6.4 9.7 0.00 0.10 0.03 59 1007.0
20260502112018 16 107 4.8 9.7 0.00 0.10 0.03 59 1007.1
20260502110907 16 95 4.8 6.4 0.00 0.10 0.03 62 1007.2
20260502110008 15 124 6.4 6.4 0.00 0.10 0.03 62 1007.1
20260502105407 15 114 4.8 6.4 0.00 0.10 0.03 64 1007.4
20260502104507 15 144 3.2 6.4 0.00 0.10 0.03 62 1007.4
20260502103607 15 121 4.8 6.4 0.00 0.10 0.03 63 1007.4
20260502102705 15 85 4.8 6.4 0.00 0.10 0.03 64 1007.1
20260502101116 14 179 3.2 6.4 0.00 0.10 0.03 65 1007.1
20260502091117 12 131 4.8 6.4 0.00 0.10 0.03 75 1008.0
20260502070910 9 119 3.2 6.4 0.00 0.10 0.03 88 1008.3
20260502070007 8 139 3.2 6.4 0.00 0.10 0.03 90 1008.1
20260502065405 8 128 4.8 6.4 0.00 0.10 0.03 90 1008.2
20260502064505 7 119 3.2 6.4 0.00 0.10 0.03 90 1008.2
20260502063605 7 120 3.2 3.2 0.03 0.10 0.03 91 1008.3
20260502062707 7 112 1.6 3.2 0.03 0.10 0.03 92 1008.2
20260502062016 6 120 3.2 3.2 0.03 0.10 0.03 92 1008.2
20260502061119 6 124 0.0 3.2 0.03 0.10 0.03 92 1008.1
20260502060216 6 120 0.0 3.2 0.03 0.10 0.03 92 1008.3
20260502055406 6 131 1.6 3.2 0.03 0.10 0.03 92 1008.2
20260502054507 6 135 1.6 3.2 0.03 0.10 0.03 92 1008.2
20260502053605 6 153 1.6 3.2 0.00 0.05 0.00 92 1008.3
20260502052708 6 143 1.6 3.2 0.00 0.05 0.00 92 1008.2
20260502051807 5 0 0.0 0.0 0.00 0.05 0.00 92 1007.9
20260502050907 5 157 0.0 3.2 0.00 0.05 0.00 92 1008.1
20260502050006 6 157 1.6 3.2 0.00 0.05 0.00 92 1008.2
20260502045618 6 157 0.0 3.2 0.00 0.05 0.00 92 1008.2
20260502044505 6 0 0.0 0.0 0.00 0.05 0.00 92 1008.0
20260502043607 6 138 0.0 3.2 0.00 0.05 0.00 92 1008.0
20260502042915 6 146 0.0 3.2 0.00 0.05 0.00 92 1008.0
20260502041806 6 0 0.0 0.0 0.00 0.05 0.00 91 1008.1
20260502040907 6 135 1.6 3.2 0.00 0.05 0.00 91 1008.1
20260502040011 6 140 0.0 3.2 0.00 0.05 0.00 91 1008.2
20260502035408 6 0 0.0 0.0 0.00 0.05 0.00 91 1008.3
20260502034507 6 0 0.0 0.0 0.00 0.05 0.00 91 1008.2
20260502033819 6 202 0.0 3.2 0.00 0.05 0.00 91 1008.4
20260502032705 7 202 0.0 3.2 0.00 0.05 0.00 91 1008.4
20260502032018 7 168 0.0 3.2 0.00 0.05 0.00 90 1008.2
20260502030907 7 180 0.0 3.2 0.00 0.05 0.00 90 1008.5
20260502030223 7 140 0.0 3.2 0.00 0.05 0.00 90 1008.2
20260502025405 7 101 0.0 3.2 0.00 0.05 0.00 90 1008.4
20260502024507 7 0 0.0 0.0 0.00 0.05 0.00 90 1008.4
20260502023608 7 202 0.0 3.2 0.00 0.05 0.00 90 1008.4
20260502022709 7 186 1.6 3.2 0.00 0.05 0.00 89 1008.6
20260502021807 8 219 0.0 3.2 0.00 0.05 0.00 89 1008.4
20260502020906 7 0 0.0 0.0 0.00 0.05 0.00 89 1008.5
20260502020005 8 155 1.6 3.2 0.00 0.05 0.00 89 1008.6
20260502015405 8 139 1.6 3.2 0.00 0.05 0.00 88 1008.5
20260502014505 8 122 1.6 3.2 0.00 0.05 0.00 88 1009.0
20260502013607 8 78 0.0 3.2 0.00 0.05 0.00 88 1009.0
20260502012705 8 119 1.6 3.2 0.00 0.05 0.00 87 1009.0
20260502011807 8 115 1.6 3.2 0.00 0.05 0.00 87 1009.3
20260502010906 9 95 0.0 3.2 0.00 0.05 0.00 86 1009.2
20260502010007 9 218 3.2 6.4 0.00 0.05 0.00 86 1009.1
20260502005407 9 245 3.2 6.4 0.00 0.05 0.00 86 1009.3
20260502004505 9 243 3.2 6.4 0.00 0.05 0.00 86 1009.2
20260502003609 9 216 4.8 9.7 0.00 0.05 0.00 87 1009.3
20260502002705 9 237 6.4 11.3 0.00 0.05 0.00 88 1009.2
20260502002015 9 235 4.8 11.3 0.00 0.05 0.00 89 1009.6
20260502000908 8 268 1.6 6.4 0.00 0.05 0.00 89 1009.6
20260502000007 8 157 0.0 3.2 0.00 0.05 0.00 89 1009.7
20260501235405 8 259 0.0 3.2 0.00 0.05 0.00 90 1009.6
20260501234719 8 255 1.6 6.4 0.00 0.05 0.00 90 1009.6